Flag for U.S.A. Weather past 2 weeks in Fort Worth, Texas, U.S.A.

Now
46 °F

Overcast.


Feels Like: 45 °F
Forecast: 38 / 53 °F
Wind: 3 mph from Northeast

Location: Meacham International Airport

Current Time: Dec 20, 2014 at 7:18:44 AM

Latest Report: Dec 20, 2014 at 6:53 AM


Visibility: 6 mi

Pressure: 30.22 "Hg

Humidity: 83%

Dew point: 41 °F

Location of Fort WorthLocation

Historic Weather in Fort Worth — Graph

°F

Fort Worth temperature yesterday

Maximum temperature yesterday: 49 °F (at 1:53 PM)
Minimum temperature yesterday: 46 °F (at 1:53 AM)
Average temperature yesterday: 47 °F

Past Weeks' High & Low Weather Summary

 TemperatureHumidityPressure
High78 °F (Dec 5, 1:53 PM)97% (Dec 7, 7:53 AM)30.41 "Hg (Dec 7, 7:53 AM)
Low39 °F (Dec 16, 6:53 AM)32% (Dec 15, 4:53 PM)29.75 "Hg (Dec 14, 3:53 PM)
Average54 °F78%30.17 "Hg
* Reported Dec 5 5:02 AM — Dec 20 5:53 AM, Fort Worth, Weather by CustomWeather, © 2014

Note: Actual official high and low records may vary slightly from our data, if they occured in-between our weather recording intervals... More about our weather records

Advertising

Fort Worth weather history for previous 24 hours

 ConditionsComfort  
Time TempWeatherWind HumidityBarometerVisibility
5:53 AM
Dec 20
46 °FOvercast.7 mph83%30.21 "Hg5 mi
4:53 AM46 °FOvercast.6 mph83%30.21 "Hg5 mi
3:53 AM46 °FOvercast.5 mph83%30.21 "Hg5 mi
2:53 AM46 °FFog.5 mph86%30.21 "Hg5 mi
1:53 AM46 °FFog.8 mph86%30.20 "Hg5 mi
12:53 AM46 °FFog.8 mph86%30.20 "Hg5 mi
11:53 PM
Dec 19
47 °FOvercast.5 mph83%30.22 "Hg5 mi
10:53 PM46 °FFog.8 mph86%30.22 "Hg5 mi
9:53 PM46 °FFog.9 mph89%30.21 "Hg4 mi
8:53 PM47 °FFog.9 mph86%30.21 "Hg4 mi
7:53 PM48 °FOvercast.8 mph83%30.19 "Hg7 mi
6:53 PM49 °FOvercast.6 mph80%30.18 "Hg7 mi
5:53 PM49 °FOvercast.10 mph80%30.17 "Hg6 mi
4:53 PM49 °FOvercast.9 mph84%30.16 "Hg5 mi
3:53 PM48 °FFog.9 mph86%30.15 "Hg4 mi
2:53 PM49 °FLow clouds.9 mph84%30.15 "Hg4 mi
1:53 PM49 °FLow clouds.9 mph84%30.14 "Hg4 mi
12:53 PM48 °FFog.9 mph86%30.15 "Hg4 mi
11:53 AM47 °FFog.12 mph90%30.17 "Hg4 mi
10:53 AM47 °FFog.13 mph90%30.20 "Hg3 mi
10:00 AM47 °FFog.9 mph90%30.20 "Hg1 mi
8:53 AM47 °FFog.9 mph90%30.18 "Hg3 mi
7:53 AM46 °FFog.9 mph89%30.18 "Hg5 mi
Weather by CustomWeather, © 2014

See weather overviewHow to use our weather pages